Location: Costa Mesa
(33.6411°N, 117.9187°W)
Time: 21:46:21
(UTC+00:00)

CENTAUR R/B - Pass Details

Date: 10 September 2024
Orbit: 661 x 1523 km, 63.4° (Epoch: 09 October)

Event Time Altitude Azimuth Distance (km) Brightness Sun altitude
Exits shadow 13:05:16 - 277° (W) 2,783 4.3 -6.4°
Reaches altitude 10° 13:06:36 10° 288° (WNW) 2,519 4.1 -6.1°
Maximum altitude 13:10:01 16° 324° (NW) 2,297 4.2 -5.4°
Drops below altitude 10° 13:13:49 10° 359° (N) 2,862 5.1 -4.6°
Sets 13:18:04 0° 20° (NNE) 4,024 6.1 -3.7°
